Regional Weather Roundup
Issued by NWS

Home | Current Version | Previous Version | Text Only | Print | Product List | Glossary Off
Versions: 1 2 3 4 5 6 7 8 9 10 11 12 13 14 15 16 17 18 19 20 21 22 23 24 25 26 27 28 29 30 31 32 33 34 35 36 37 38 39 40 41 42 43 44 45 46 47 48 49 50

000
ASUS43 KLMK 181010
RWRKY
KENTUCKY REGIONAL WEATHER ROUNDUP
NATIONAL WEATHER SERVICE LOUISVILLE KY
600 AM EDT FRI AUG 18 2017

NOTE "FAIR" INDICATES FEW OR NO CLOUDS BELOW 12,000 FEET
WITH NO SIGNIFICANT WEATHER AND/OR OBSTRUCTIONS TO VISIBILITY.

KYZ001>023-026-027-061>063-070>075-181100-
WESTERN AND SOUTH CENTRAL KENTUCKY

CITY           SKY/WX    TMP DP  RH WIND       PRES   REMARKS
PADUCAH        CLEAR     69  66  90 SW5       29.93R
HENDERSON      CLEAR     66  66 100 SW5       29.91R
OWENSBORO      CLEAR     70  69  97 SW3       29.91R
HOPKINSVILLE   PTCLDY    73  73  99 W7        29.94R
BOWLING GREEN  CLOUDY    76  74  93 W8        29.93R
GLASGOW        CLOUDY    74  74 100 W5        29.92R
$$

KYZ024-025-028>034-038-045-046-053-181100-
NORTH CENTRAL KENTUCKY

CITY           SKY/WX    TMP DP  RH WIND       PRES   REMARKS
LOUISVILLE/SDF PTCLDY    75  72  90 SW3       29.89R
LOUISVILLE/LOU PTCLDY    73  73 100 S3        29.89R
FORT KNOX      PTCLDY    72  72 100 W3        29.90R
$$

KYZ035>037-039>044-047>052-055>060-089>105-181100-
NORTHEAST KENTUCKY

CITY           SKY/WX    TMP DP  RH WIND       PRES   REMARKS
LEXINGTON      CLOUDY    74  72  93 W6        29.91R
COVINGTON      PTCLDY    73  73 100 SW3       29.88R FOG
FRANKFORT      CLOUDY    75  72  90 W5        29.89R
$$

KYZ054-064>069-076>088-106>120-181100-
SOUTHEAST KENTUCKY

CITY           SKY/WX    TMP DP  RH WIND       PRES   REMARKS
JACKSON        LGT RAIN  72  71  97 CALM      29.93S FOG
LONDON         RAIN      73  71  93 SW5       29.94R FOG
SOMERSET       CLOUDY    72  72 100 W7        29.94R
MIDDLESBORO    CLOUDY    73  73 100 CALM      29.96R
MONTICELLO     CLOUDY    73  72  96 W12       29.96R
$$





USA.gov is the U.S. government's official web portal to all federal, state and local government web resources and services.